Location: Azul
(36.7830°S, 59.8500°W)
Time: 06:52:54
(UTC-03:00)

SEEDS - Pass Details

Date: 28 September 2024
Orbit: 541 x 543 km, 97.7° (Epoch: 08 October)

Event Time Altitude Azimuth Distance (km) Brightness Sun altitude
Exits shadow 03:30:24 10° 159° (SSE) 1,824 ? -36.1°
Drops below altitude 10° 03:30:29 10° 160° (SSE) 1,853 ? -36.1°
Sets 03:33:00 0° 175° (S) 2,746 ? -35.6°
